| time (UTC) | temp F | wind direction | speed knots | gust knots | rain 1hr in | rain 24hr in | rain mn in | humidity % | barometer mb |
| 20260504050006 | 39 | 85 | 0.9 | 8.7 | 0.02 | 0.61 | 0.02 | 95 | 974.4 |
| 20260504044508 | 39 | 332 | 2.6 | 13.9 | 0.02 | 0.61 | 0.02 | 95 | 975.2 |
| 20260504043100 | 39 | 25 | 2.6 | 12.2 | 0.01 | 0.61 | 0.02 | 94 | 975.9 |
| 20260504041557 | 40 | 217 | 2.6 | 16.5 | 0.02 | 0.61 | 0.02 | 94 | 976.4 |
| 20260504040053 | 40 | 156 | 6.1 | 16.5 | 0.01 | 0.60 | 0.01 | 95 | 977.4 |
| 20260504034554 | 40 | 206 | 6.1 | 13.9 | 0.01 | 0.60 | 0.01 | 95 | 978.1 |
| 20260504033054 | 40 | 70 | 0.9 | 5.2 | 0.01 | 0.60 | 0.01 | 95 | 979.1 |
| 20260504031544 | 41 | 52 | 1.7 | 10.4 | 0.00 | 0.59 | 0.00 | 95 | 979.8 |
| 20260504030039 | 41 | 160 | 5.2 | 14.8 | 0.01 | 0.59 | 0.59 | 96 | 980.4 |
| 20260504024540 | 41 | 128 | 8.7 | 18.2 | 0.01 | 0.59 | 0.59 | 98 | 980.8 |
| 20260504023035 | 40 | 197 | 9.6 | 14.8 | 0.02 | 0.59 | 0.59 | 98 | 981.3 |
| 20260504021536 | 38 | 357 | 4.3 | 11.3 | 0.02 | 0.59 | 0.59 | 98 | 982.4 |
| 20260504020031 | 38 | 40 | 7.0 | 14.8 | 0.03 | 0.57 | 0.57 | 97 | 982.7 |
| 20260504014525 | 38 | 48 | 12.2 | 20.9 | 0.05 | 0.57 | 0.57 | 97 | 983.7 |
| 20260504013033 | 38 | 2 | 12.2 | 22.6 | 0.06 | 0.56 | 0.56 | 97 | 984.6 |
| 20260504011520 | 38 | 21 | 15.6 | 26.1 | 0.07 | 0.56 | 0.56 | 97 | 985.5 |
| 20260504010016 | 37 | 44 | 16.5 | 24.3 | 0.08 | 0.55 | 0.55 | 97 | 986.5 |
| 20260504004515 | 37 | 56 | 17.4 | 25.2 | 0.09 | 0.54 | 0.54 | 97 | 987.5 |
| 20260504003011 | 37 | 62 | 16.5 | 25.2 | 0.13 | 0.52 | 0.52 | 97 | 988.1 |
| 20260504001508 | 37 | 23 | 14.8 | 26.9 | 0.14 | 0.50 | 0.50 | 97 | 989.2 |
| 20260504000007 | 37 | 40 | 20.0 | 29.5 | 0.15 | 0.47 | 0.47 | 97 | 989.3 |
| 20260503234505 | 37 | 20 | 20.9 | 32.2 | 0.15 | 0.45 | 0.45 | 97 | 989.8 |
| 20260503233001 | 37 | 357 | 14.8 | 22.6 | 0.11 | 0.39 | 0.39 | 97 | 991.3 |
| 20260503231558 | 37 | 357 | 15.6 | 24.3 | 0.10 | 0.35 | 0.35 | 97 | 992.2 |
| 20260503230059 | 37 | 2 | 13.9 | 22.6 | 0.09 | 0.32 | 0.32 | 97 | 993.0 |
| 20260503224553 | 37 | 46 | 12.2 | 20.0 | 0.09 | 0.30 | 0.30 | 97 | 994.1 |
| 20260503223051 | 37 | 357 | 14.8 | 21.7 | 0.10 | 0.28 | 0.28 | 97 | 994.5 |
| 20260503221549 | 37 | 46 | 11.3 | 19.1 | 0.13 | 0.25 | 0.25 | 97 | 995.6 |
| 20260503220104 | 36 | 33 | 12.2 | 17.4 | 0.15 | 0.24 | 0.24 | 97 | 995.9 |
| 20260503214547 | 36 | 46 | 10.4 | 19.1 | 0.12 | 0.20 | 0.20 | 97 | 996.4 |
| 20260503213049 | 36 | 39 | 13.0 | 24.3 | 0.09 | 0.17 | 0.17 | 97 | 996.5 |
| 20260503211559 | 35 | 2 | 14.8 | 20.9 | 0.06 | 0.13 | 0.13 | 97 | 996.7 |
| 20260503210039 | 35 | 23 | 13.0 | 20.0 | 0.02 | 0.09 | 0.09 | 97 | 998.1 |
| 20260503204539 | 35 | 64 | 13.9 | 19.1 | 0.02 | 0.08 | 0.08 | 96 | 998.5 |
| 20260503203037 | 35 | 24 | 12.2 | 22.6 | 0.02 | 0.08 | 0.08 | 96 | 999.6 |
| 20260503201535 | 35 | 48 | 12.2 | 22.6 | 0.02 | 0.07 | 0.07 | 96 | 999.6 |
| 20260503200036 | 35 | 55 | 16.5 | 23.5 | 0.04 | 0.07 | 0.07 | 96 | 1000.1 |
| 20260503194531 | 36 | 357 | 14.8 | 21.7 | 0.06 | 0.06 | 0.06 | 96 | 1001.0 |
| 20260503193027 | 36 | 357 | 13.0 | 18.2 | 0.06 | 0.06 | 0.06 | 96 | 1002.0 |
| 20260503191527 | 36 | 18 | 18.2 | 23.5 | 0.05 | 0.05 | 0.05 | 96 | 1002.5 |
| 20260503190023 | 37 | 2 | 14.8 | 20.0 | 0.02 | 0.02 | 0.02 | 95 | 1003.8 |
| 20260503184525 | 37 | 20 | 15.6 | 23.5 | 0.01 | 0.01 | 0.01 | 95 | 1004.7 |
| 20260503183027 | 38 | 2 | 16.5 | 20.0 | 0.00 | 0.00 | 0.00 | 92 | 1005.5 |
| 20260503181526 | 41 | 2 | 10.4 | 13.9 | 0.00 | 0.00 | 0.00 | 86 | 1005.9 |
| 20260503180013 | 42 | 54 | 7.0 | 9.6 | 0.00 | 0.00 | 0.00 | 83 | 1006.6 |
| 20260503174510 | 43 | 357 | 4.3 | 9.6 | 0.00 | 0.00 | 0.00 | 83 | 1007.0 |
| 20260503173112 | 42 | 50 | 4.3 | 9.6 | 0.00 | 0.00 | 0.00 | 86 | 1007.7 |
| 20260503171504 | 40 | 17 | 7.8 | 12.2 | 0.00 | 0.00 | 0.00 | 91 | 1007.5 |
| 20260503100113 | 34 | 199 | 5.2 | 7.8 | 0.00 | 0.01 | 0.00 | 98 | 1014.7 |
| 20260503081540 | 34 | 193 | 3.5 | 6.1 | 0.00 | 0.01 | 0.00 | 97 | 1015.4 |
| 20260503071536 | 34 | 176 | 5.2 | 7.8 | 0.00 | 0.02 | 0.00 | 98 | 1015.5 |